Weather History for Fryeburg, ME

Change the Weather History Date:

Saturday, March 22, 2014

  Actual Average Record
Temperature  
Mean Temperature 24 °F -  
Max Temperature 37 °F 40 °F 86 °F (2012)
Min Temperature 12 °F 20 °F 7 °F (2004)
Degree Days  
Heating Degree Days 42    
Moisture  
Dew Point 21 °F    
Average Humidity 74    
Maximum Humidity 92    
Minimum Humidity 46    
Precipitation  
Precipitation 0.04 in - - ()
Sea Level Pressure  
Sea Level Pressure 29.81 in    
Wind  
Wind Speed 4 mph (WSW)    
Max Wind Speed 14 mph    
Max Gust Speed 28 mph    
Visibility 7 miles    
Events Fog , Snow    
Averages and records for this station are not official NWS values.
T = Trace of Precipitation, MM = Missing Value Source: NWS Daily Summary

Daily Weather History Graph

Daily Weather History Graph

Search for Another Location

Airport:

Trip Planner

Search our weather history database for the weather conditions in past years. The results will help you decide how hot, cold, wet, or windy it might be!

Date:

Astronomy

Mar. 22, 2014 Rise Set
Actual Time 6:43 AM EDT 6:58 PM EDT
Civil Twilight 6:14 AM EDT 7:27 PM EDT
Nautical Twilight 5:40 AM EDT 8:01 PM EDT
Astronomical Twilight 5:06 AM EDT 8:36 PM EDT
Moon 12:24 AM EDT (3/22) 10:13 AM EDT (3/22)
Length of Visible Light 13h 12m
Length of Day
12h 15m
Waning Gibbous, 65% of the Moon is Illuminated
Mar 22
Waning Gibbous
Mar 23
Last Quarter
Mar 30
New
Apr 7
First Quarter
Apr 15
Full

Hourly Weather History & Observations

Time (EDT) Temp. Windchill Dew Point Humidity Pressure Visibility Wind Dir Wind Speed Gust Speed Precip Events Conditions
12:54 AM 26.1 °F 21.9 °F 12.0 °F 55% 29.96 in 10.0 mi East 3.5 mph - N/A   Clear
1:54 AM 21.9 °F - 12.0 °F 66% 29.97 in 10.0 mi Calm Calm - N/A   Clear
2:54 AM 19.0 °F 13.9 °F 10.9 °F 71% 30.00 in 10.0 mi West 3.5 mph - N/A   Clear
3:54 AM 19.0 °F 12.3 °F 10.9 °F 71% 29.99 in 10.0 mi NNW 4.6 mph - N/A   Clear
4:54 AM 14.0 °F 8.2 °F 10.0 °F 84% 29.98 in 10.0 mi NE 3.5 mph - N/A   Clear
5:54 AM 12.9 °F 6.9 °F 9.0 °F 84% 29.96 in 10.0 mi SW 3.5 mph - N/A   Clear
6:54 AM 16.0 °F 10.4 °F 10.9 °F 81% 29.97 in 10.0 mi ESE 3.5 mph - N/A   Clear
7:54 AM 19.9 °F - 12.9 °F 74% 29.97 in 10.0 mi Calm Calm - N/A   Mostly Cloudy
8:54 AM 24.1 °F - 14.0 °F 65% 29.94 in 10.0 mi Calm Calm - N/A   Overcast
9:54 AM 27.0 °F - 16.0 °F 63% 29.89 in 10.0 mi Calm Calm - N/A   Overcast
10:54 AM 30.9 °F - 15.1 °F 52% 29.83 in 10.0 mi Calm Calm - N/A   Overcast
11:54 AM 34.0 °F 29.8 °F 15.1 °F 46% 29.79 in 10.0 mi Variable 4.6 mph - N/A   Overcast
12:54 PM 34.0 °F 26.0 °F 21.0 °F 59% 29.76 in 3.0 mi SW 10.4 mph - 0.00 in Snow Light Snow
12:59 PM 33.1 °F 26.1 °F 23.0 °F 66% 29.74 in 1.8 mi South 8.1 mph - 0.00 in Snow Light Snow
1:15 PM 30.9 °F 25.2 °F 27.0 °F 85% 29.73 in 0.8 mi SSW 5.8 mph - 0.00 in Snow Light Snow
1:27 PM 30.9 °F 27.5 °F 28.0 °F 89% 29.72 in 0.5 mi Variable 3.5 mph - 0.01 in Fog , Snow Snow
1:54 PM 30.9 °F - 28.9 °F 92% 29.73 in 0.5 mi Calm Calm - 0.03 in Fog , Snow Light Snow
1:59 PM 30.9 °F - 28.9 °F 92% 29.70 in 1.5 mi Calm Calm - 0.00 in Snow Light Snow
2:02 PM 32.0 °F - 28.9 °F 88% 29.70 in 3.0 mi Calm Calm - 0.00 in Snow Light Snow
2:54 PM 30.9 °F 26.2 °F 28.0 °F 89% 29.69 in 8.0 mi North 4.6 mph - 0.00 in   Overcast
3:18 PM 32.0 °F 28.7 °F 28.0 °F 85% 29.65 in 10.0 mi West 3.5 mph - N/A   Overcast
3:41 PM 32.0 °F 28.7 °F 28.0 °F 85% 29.64 in 5.0 mi Variable 3.5 mph - 0.01 in Snow Light Snow
3:54 PM 32.0 °F 26.4 °F 28.0 °F 85% 29.67 in 4.0 mi WSW 5.8 mph - 0.01 in Snow Light Snow
4:05 PM 32.0 °F 24.8 °F 28.0 °F 85% 29.64 in 4.0 mi WSW 8.1 mph - 0.00 in Snow Light Snow
4:29 PM 33.1 °F 27.7 °F 28.9 °F 85% 29.65 in 2.0 mi SW 5.8 mph - 0.00 in Snow Light Snow
4:42 PM 33.1 °F 28.7 °F 28.9 °F 85% 29.65 in 5.0 mi Variable 4.6 mph - 0.00 in Snow Light Snow
4:54 PM 34.0 °F 26.6 °F 28.9 °F 82% 29.68 in 9.0 mi WSW 9.2 mph - 0.00 in Snow Light Snow
5:54 PM 35.1 °F 27.9 °F 28.0 °F 76% 29.70 in 10.0 mi WSW 9.2 mph - 0.00 in   Partly Cloudy
6:54 PM 35.1 °F 25.9 °F 21.0 °F 57% 29.78 in 10.0 mi NW 13.8 mph 23.0 mph N/A   Clear
7:54 PM 32.0 °F 23.6 °F 18.0 °F 56% 29.85 in 10.0 mi West 10.4 mph 24.2 mph N/A   Mostly Cloudy
8:54 PM 32.0 °F 23.0 °F 18.0 °F 56% 29.87 in 10.0 mi West 11.5 mph 27.6 mph N/A   Clear
9:54 PM 32.0 °F - 19.0 °F 59% 29.90 in 10.0 mi Calm Calm - N/A   Overcast
10:54 PM 30.9 °F - 18.0 °F 59% 29.89 in 10.0 mi Calm Calm - N/A   Partly Cloudy
11:54 PM 24.1 °F - 17.1 °F 75% 29.90 in 10.0 mi Calm Calm - N/A   Clear